Pineville, WV

8:06 PM EST on December 14, 2019 (GMT -0500)
Pineville

Weather History for KI16 - June, 2019

Change the Weather History Date:

Monday, June 10, 2019

  Actual Average (WUND) Record (WUND)
Temperature  
Mean Temperature 72 °F -  
Max Temperature 81 °F - - (-1)
Min Temperature 61 °F - - (-1)
Cooling Degree Days 7    
Growing Degree Days 22 (Base 50)    
Moisture  
Dew Point 66 °F    
Average Humidity 89    
Maximum Humidity 98    
Minimum Humidity 64    
Precipitation  
Precipitation 0.00 in - - ()
Sea Level Pressure  
Sea Level Pressure 30.04 in    
Wind  
Wind Speed - (North)    
Max Wind Speed -    
Max Gust Speed -    
Visibility 9 miles    
Events Rain    
Averages and records for this station are not official NWS values.
T = Trace of Precipitation, MM = Missing Value Source: NWS Daily Summary

Daily Weather History Graph

Daily Weather History Graph

Search for Another Location

Airport or City:

Astronomy

Jun. 10, 2019 Rise Set
Actual Time 6:04 AM EDT 8:47 PM EDT
Civil Twilight 5:33 AM EDT 9:18 PM EDT
Nautical Twilight 4:54 AM EDT 9:56 PM EDT
Astronomical Twilight 4:11 AM EDT 10:40 PM EDT
Moon 1:45 PM EDT (6/10) 2:05 AM EDT (6/10)
Length of Visible Light 15h 44m
Length of Day
14h 42m
First Quarter, 55% of the Moon is Illuminated
Jun 10
First Quarter
Jun 17
Full
Jun 25
Last Quarter
Jul 2
New
Jul 9
First Quarter

Hourly Weather History & Observations

Time (EDT) Temp. Heat Index Dew Point Humidity Pressure Visibility Wind Dir Wind Speed Gust Speed Precip Events Conditions
12:15 AM 69.8 °F - 64.0 °F 82% 30.07 in 10.0 mi North - - N/A   Clear
12:35 AM 68.4 °F - 64.0 °F 86% 30.07 in 10.0 mi North - - N/A   Scattered Clouds
12:55 AM 68.0 °F - 64.2 °F 88% 30.07 in 10.0 mi North - - N/A   Mostly Cloudy
1:15 AM 67.5 °F - 64.4 °F 90% 30.06 in 10.0 mi North - - N/A   Overcast
1:35 AM 67.5 °F - 64.0 °F 89% 30.05 in 10.0 mi North - - N/A   Mostly Cloudy
1:55 AM 66.7 °F - 63.7 °F 90% 30.05 in 10.0 mi North - - N/A   Clear
2:15 AM 65.5 °F - 63.7 °F 94% 30.05 in 10.0 mi North - - N/A   Clear
2:35 AM 65.3 °F - 63.7 °F 94% 30.04 in 10.0 mi North - - N/A   Scattered Clouds
2:55 AM 65.3 °F - 63.9 °F 95% 30.04 in 10.0 mi North - - N/A   Clear
3:15 AM 64.9 °F - 63.9 °F 96% 30.03 in 10.0 mi North - - N/A   Clear
3:35 AM 64.8 °F - 63.9 °F 97% 30.03 in 10.0 mi North - - N/A   Scattered Clouds
3:55 AM 64.4 °F - 63.5 °F 97% 30.02 in 10.0 mi North - - N/A   Clear
4:15 AM 64.6 °F - 63.7 °F 97% 30.02 in 10.0 mi North - - N/A   Clear
4:35 AM 64.4 °F - 63.5 °F 97% 30.02 in 10.0 mi North - - N/A   Clear
4:55 AM 64.6 °F - 63.7 °F 97% 30.02 in 10.0 mi North - - N/A   Clear
5:15 AM 64.4 °F - 63.7 °F 98% 30.02 in 10.0 mi North - - N/A   Clear
5:35 AM 64.4 °F - 63.7 °F 98% 30.02 in 10.0 mi North - - N/A   Clear
5:55 AM 64.4 °F - 63.5 °F 97% 30.02 in 10.0 mi North - - N/A   Clear
6:15 AM 64.4 °F - 63.5 °F 97% 30.03 in 10.0 mi North - - N/A   Scattered Clouds
6:35 AM 64.6 °F - 63.7 °F 97% 30.04 in 10.0 mi North - - N/A   Light Drizzle
6:55 AM 65.3 °F - 64.4 °F 97% 30.04 in 10.0 mi North - - N/A   Light Drizzle
7:15 AM 65.3 °F - 64.4 °F 97% 30.04 in 10.0 mi North - - N/A   Drizzle
7:35 AM 65.8 °F - 64.8 °F 96% 30.04 in 10.0 mi North - - N/A Rain Rain
7:55 AM 66.4 °F - 65.3 °F 96% 30.05 in 10.0 mi North - - N/A Rain Light Rain
8:15 AM 67.1 °F - 66.0 °F 96% 30.05 in 10.0 mi North - - N/A   Scattered Clouds
8:35 AM 68.5 °F - 67.3 °F 96% 30.04 in 10.0 mi North - - N/A   Mostly Cloudy
8:55 AM 70.2 °F - 66.4 °F 88% 30.04 in 10.0 mi North - - N/A   Overcast
9:15 AM 71.4 °F - 67.1 °F 86% 30.04 in 10.0 mi North - - N/A   Overcast
9:35 AM 72.0 °F - 66.4 °F 83% 30.04 in 10.0 mi North - - N/A   Overcast
9:55 AM 72.0 °F - 66.4 °F 83% 30.04 in 10.0 mi North - - N/A   Overcast
10:15 AM 71.8 °F - 66.7 °F 84% 30.04 in 10.0 mi North - - N/A   Light Drizzle
10:35 AM 71.4 °F - 68.2 °F 89% 30.04 in 10.0 mi North - - N/A   Overcast
10:55 AM 72.5 °F - 67.1 °F 83% 30.04 in 10.0 mi North - - N/A   Overcast
11:15 AM 72.5 °F - 68.0 °F 86% 30.04 in 10.0 mi North - - N/A   Overcast
11:35 AM 72.5 °F - 68.9 °F 88% 30.04 in 10.0 mi North - - N/A   Overcast
11:55 AM 74.8 °F - 67.8 °F 79% 30.04 in 10.0 mi North - - N/A   Overcast
12:15 PM 77.4 °F - 68.7 °F 75% 30.03 in 10.0 mi North - - N/A   Overcast
12:35 PM 76.6 °F - 67.3 °F 73% 30.03 in 10.0 mi North - - N/A   Overcast
12:55 PM 78.1 °F - 67.6 °F 70% 30.02 in 10.0 mi North - - N/A   Overcast
1:15 PM 77.4 °F - 67.3 °F 71% 30.02 in 10.0 mi North - - N/A   Overcast
1:35 PM 77.5 °F - 67.1 °F 70% 30.01 in 10.0 mi North - - N/A   Overcast
1:55 PM 80.1 °F 82.6 °F 67.8 °F 66% 30.00 in 10.0 mi North - - N/A   Scattered Clouds
2:15 PM 81.5 °F 84.4 °F 68.2 °F 64% 29.99 in 10.0 mi North - - N/A   Mostly Cloudy
2:35 PM 80.4 °F 83.0 °F 67.5 °F 65% 29.98 in 10.0 mi North - - N/A   Mostly Cloudy
2:55 PM 74.5 °F - 69.3 °F 84% 29.99 in 4.0 mi North - - N/A Rain Heavy Rain
3:15 PM 73.9 °F - 70.7 °F 90% 29.99 in 10.0 mi North - - N/A   Light Drizzle
3:35 PM 74.3 °F - 70.9 °F 89% 29.99 in 10.0 mi North - - N/A   Overcast
3:55 PM 70.3 °F - 67.3 °F 90% 30.01 in 2.5 mi North - - N/A Rain Heavy Rain
4:15 PM 70.3 °F - 68.2 °F 93% 30.00 in 3.0 mi North - - N/A Rain Rain
4:35 PM 70.7 °F - 68.7 °F 93% 30.01 in 7.0 mi North - - N/A   Drizzle
4:55 PM 70.3 °F - 68.4 °F 93% 30.01 in 4.0 mi North - - N/A Rain Light Rain
5:15 PM 70.5 °F - 68.7 °F 94% 30.02 in 2.5 mi North - - N/A Rain Heavy Rain
5:35 PM 69.4 °F - 66.4 °F 90% 30.03 in 5.0 mi North - - N/A Rain Rain
5:55 PM 69.8 °F - 67.6 °F 93% 30.03 in 10.0 mi North - - N/A   Light Drizzle
6:15 PM 69.8 °F - 67.3 °F 92% 30.03 in 10.0 mi North - - N/A   Overcast
6:35 PM 69.4 °F - 67.3 °F 93% 30.04 in 10.0 mi North - - N/A   Overcast
6:55 PM 69.3 °F - 67.5 °F 94% 30.04 in 7.0 mi North - - N/A   Overcast
7:15 PM 70.0 °F - 67.1 °F 91% 30.04 in 7.0 mi North - - N/A   Overcast
7:35 PM 69.6 °F - 67.3 °F 92% 30.04 in 7.0 mi North - - N/A   Mostly Cloudy
8:15 PM 68.9 °F - 67.8 °F 96% 30.05 in 5.0 mi North - - N/A   Mostly Cloudy
8:35 PM 68.9 °F - 67.6 °F 96% 30.06 in 4.0 mi North - - N/A   Mostly Cloudy
8:55 PM 68.2 °F - 67.3 °F 97% 30.05 in 2.5 mi North - - N/A   Mostly Cloudy
9:15 PM 68.2 °F - 67.3 °F 97% 30.07 in 3.0 mi North - - N/A Rain Heavy Rain
9:35 PM 68.0 °F - 65.5 °F 92% 30.09 in 7.0 mi North - - N/A Rain Rain
9:55 PM 67.1 °F - 64.4 °F 91% 30.10 in 10.0 mi North - - N/A   Overcast
10:15 PM 66.2 °F - 64.4 °F 94% 30.11 in 5.0 mi North - - N/A Rain Rain
10:35 PM 65.8 °F - 63.1 °F 91% 30.12 in 7.0 mi North - - N/A   Drizzle
10:55 PM 65.5 °F - 61.3 °F 86% 30.13 in 10.0 mi North - - N/A   Overcast
11:15 PM 63.9 °F - 60.6 °F 89% 30.14 in 10.0 mi North - - N/A   Mostly Cloudy
11:35 PM 63.5 °F - 59.9 °F 88% 30.15 in 10.0 mi North - - N/A   Mostly Cloudy
11:55 PM 61.7 °F - 58.1 °F 88% 30.16 in 10.0 mi North - - N/A   Scattered Clouds